Knoxville, IA

10:22 AM CDT on April 27, 2017 (GMT -0500)
Knoxville Municipal

Weather History for KOXV - May, 2013

Change the Weather History Date:

Thursday, May 30, 2013

  Actual Average Record
Temperature  
Mean Temperature 68 °F -  
Max Temperature 73 °F 77 °F 97 °F (1953)
Min Temperature 62 °F 56 °F 40 °F (1965)
Cooling Degree Days 2    
Growing Degree Days 18 (Base 50)    
Moisture  
Dew Point 61 °F    
Average Humidity 78    
Maximum Humidity 94    
Minimum Humidity 64    
Precipitation  
Precipitation 0.12 in - - ()
Sea Level Pressure  
Sea Level Pressure 29.67 in    
Wind  
Wind Speed 16 mph (South)    
Max Wind Speed 26 mph    
Max Gust Speed 33 mph    
Visibility 10 miles    
Events Rain    
Averages and records for this station are not official NWS values.
T = Trace of Precipitation, MM = Missing Value Source: NWS Daily Summary

Daily Weather History Graph

Daily Weather History Graph

Search for Another Location

Airport or City:

Trip Planner

Search our weather history database for the weather conditions in past years. The results will help you decide how hot, cold, wet, or windy it might be!

Date:

Astronomy

May. 30, 2013 Rise Set
Actual Time 5:42 AM CDT 8:38 PM CDT
Civil Twilight 5:09 AM CDT 9:11 PM CDT
Nautical Twilight 4:27 AM CDT 9:52 PM CDT
Astronomical Twilight 3:39 AM CDT 10:41 PM CDT
Moon 12:37 AM CDT (5/30) 11:54 AM CDT (5/30)
Length of Visible Light 16h 01m
Length of Day
14h 55m
Waning Gibbous, 62% of the Moon is Illuminated
May 30
Waning Gibbous
May 31
Last Quarter
Jun 8
New
Jun 16
First Quarter
Jun 23
Full

Hourly Weather History & Observations

Time (CDT) Temp. Dew Point Humidity Pressure Visibility Wind Dir Wind Speed Gust Speed Precip Events Conditions
12:15 AM 73.4 °F 64.4 °F 73% 29.69 in 10.0 mi SSE 16.1 mph 23.0 mph N/A   Scattered Clouds
12:35 AM 73.4 °F 64.4 °F 73% 29.68 in 10.0 mi SSE 17.3 mph 24.2 mph N/A   Partly Cloudy
12:55 AM 73.4 °F 64.4 °F 73% 29.69 in 10.0 mi SSE 16.1 mph 25.3 mph N/A   Partly Cloudy
1:15 AM 73.4 °F 64.4 °F 73% 29.68 in 10.0 mi South 19.6 mph 28.8 mph N/A   Partly Cloudy
1:35 AM 73.4 °F 64.4 °F 73% 29.67 in 10.0 mi SSE 20.7 mph - N/A   Partly Cloudy
1:55 AM 73.4 °F 62.6 °F 69% 29.67 in 10.0 mi SSE 19.6 mph - N/A   Scattered Clouds
2:15 AM 73.4 °F 62.6 °F 69% 29.67 in 10.0 mi South 20.7 mph 26.5 mph N/A   Mostly Cloudy
2:35 AM 73.4 °F 62.6 °F 69% 29.68 in 10.0 mi South 20.7 mph 28.8 mph N/A   Mostly Cloudy
2:55 AM 73.4 °F 62.6 °F 69% 29.68 in 10.0 mi South 17.3 mph 28.8 mph N/A   Partly Cloudy
3:15 AM 73.4 °F 60.8 °F 65% 29.67 in 10.0 mi South 26.5 mph 33.4 mph N/A   Mostly Cloudy
3:35 AM 71.6 °F 60.8 °F 69% 29.67 in 10.0 mi SSW 19.6 mph 33.4 mph N/A   Scattered Clouds
3:55 AM 71.6 °F 59.0 °F 64% 29.67 in 10.0 mi South 16.1 mph 28.8 mph N/A   Scattered Clouds
4:15 AM 71.6 °F 59.0 °F 64% 29.67 in 10.0 mi South 18.4 mph 29.9 mph N/A   Mostly Cloudy
4:35 AM 69.8 °F 59.0 °F 68% 29.67 in 10.0 mi South 11.5 mph 20.7 mph N/A   Mostly Cloudy
4:55 AM 69.8 °F 59.0 °F 68% 29.66 in - South 12.7 mph 20.7 mph N/A   Mostly Cloudy
5:15 AM 69.8 °F 59.0 °F 68% 29.66 in 10.0 mi South 12.7 mph 19.6 mph N/A   Scattered Clouds
5:35 AM 68.0 °F 59.0 °F 73% 29.66 in 10.0 mi South 15.0 mph 24.2 mph N/A   Scattered Clouds
5:55 AM 68.0 °F 59.0 °F 73% 29.66 in 10.0 mi South 15.0 mph 21.9 mph N/A   Partly Cloudy
6:15 AM 68.0 °F 59.0 °F 73% 29.66 in 10.0 mi South 15.0 mph - N/A   Clear
6:35 AM 68.0 °F 60.8 °F 78% 29.67 in 10.0 mi South 15.0 mph - N/A   Clear
6:55 AM 68.0 °F 60.8 °F 78% 29.67 in 10.0 mi SSE 16.1 mph 23.0 mph N/A   Clear
7:15 AM 68.0 °F 60.8 °F 78% 29.68 in 10.0 mi South 15.0 mph - N/A   Clear
7:35 AM 68.0 °F 60.8 °F 78% 29.69 in 10.0 mi South 13.8 mph 23.0 mph N/A   Mostly Cloudy
7:55 AM 68.0 °F 60.8 °F 78% 29.69 in 10.0 mi South 13.8 mph 19.6 mph N/A   Mostly Cloudy
8:15 AM 69.8 °F 60.8 °F 73% 29.68 in 10.0 mi South 16.1 mph 25.3 mph N/A   Partly Cloudy
8:35 AM 69.8 °F 60.8 °F 73% 29.68 in 10.0 mi South 16.1 mph 25.3 mph N/A   Clear
8:55 AM 69.8 °F 60.8 °F 73% 29.69 in 10.0 mi South 16.1 mph 24.2 mph N/A   Clear
9:15 AM 69.8 °F 60.8 °F 73% 29.69 in 10.0 mi South 20.7 mph 27.6 mph N/A   Clear
9:35 AM 69.8 °F 62.6 °F 78% 29.69 in 10.0 mi South 18.4 mph 29.9 mph N/A   Partly Cloudy
9:55 AM 69.8 °F 60.8 °F 73% 29.69 in 10.0 mi South 16.1 mph 25.3 mph N/A   Partly Cloudy
10:15 AM 71.6 °F 62.6 °F 73% 29.68 in 10.0 mi South 18.4 mph - N/A   Mostly Cloudy
10:35 AM 71.6 °F 62.6 °F 73% 29.69 in 10.0 mi South 16.1 mph 31.1 mph N/A   Mostly Cloudy
10:55 AM 71.6 °F 62.6 °F 73% 29.70 in 10.0 mi SSW 15.0 mph 26.5 mph N/A   Overcast
11:15 AM 69.8 °F 60.8 °F 73% 29.71 in 10.0 mi South 20.7 mph 27.6 mph N/A   Overcast
11:35 AM 71.6 °F 62.6 °F 73% 29.71 in 10.0 mi South 16.1 mph 24.2 mph N/A   Mostly Cloudy
11:55 AM 69.8 °F 60.8 °F 73% 29.71 in 10.0 mi South 17.3 mph 23.0 mph N/A   Mostly Cloudy
12:15 PM 71.6 °F 62.6 °F 73% 29.70 in 10.0 mi South 17.3 mph - N/A   Mostly Cloudy
12:35 PM 71.6 °F 62.6 °F 73% 29.70 in 10.0 mi South 15.0 mph 20.7 mph N/A   Mostly Cloudy
12:55 PM 71.6 °F 62.6 °F 73% 29.69 in 10.0 mi South 15.0 mph 23.0 mph N/A   Overcast
1:15 PM 73.4 °F 62.6 °F 69% 29.66 in 10.0 mi SSW 12.7 mph - N/A   Mostly Cloudy
1:35 PM 69.8 °F 62.6 °F 78% 29.65 in 4.0 mi South 13.8 mph 21.9 mph N/A   Haze
1:55 PM 68.0 °F 64.4 °F 88% 29.65 in 4.0 mi South 15.0 mph - 0.02 in   Haze
2:15 PM 68.0 °F 64.4 °F 88% 29.64 in 7.0 mi South 18.4 mph 25.3 mph N/A Rain Light Rain
2:35 PM 66.2 °F 62.6 °F 88% 29.63 in 5.0 mi South 20.7 mph 33.4 mph N/A Rain Light Rain
2:55 PM 66.2 °F 62.6 °F 88% 29.62 in 7.0 mi SSE 16.1 mph 26.5 mph 0.04 in Rain Light Rain
3:15 PM 66.2 °F 62.6 °F 88% 29.65 in 10.0 mi South 16.1 mph 21.9 mph N/A   Clear
3:35 PM 66.2 °F 62.6 °F 88% 29.64 in 4.0 mi SSW 16.1 mph 25.3 mph N/A Rain Light Rain
3:55 PM 64.4 °F 60.8 °F 88% 29.63 in 3.0 mi South 13.8 mph 21.9 mph 0.05 in   Partly Cloudy
4:15 PM 64.4 °F 60.8 °F 88% 29.59 in 9.0 mi South 12.7 mph - N/A   Clear
4:35 PM 66.2 °F 60.8 °F 83% 29.58 in 10.0 mi SSW 9.2 mph 16.1 mph N/A   Clear
4:55 PM 68.0 °F 60.8 °F 78% 29.60 in 10.0 mi SSW 21.9 mph 32.2 mph 0.01 in   Clear
5:15 PM 68.0 °F 60.8 °F 78% 29.59 in 10.0 mi SSW 17.3 mph 28.8 mph N/A   Partly Cloudy
5:35 PM 68.0 °F 59.0 °F 73% 29.61 in 10.0 mi SSW 17.3 mph 28.8 mph N/A   Clear
5:55 PM 69.8 °F 60.8 °F 73% 29.62 in 10.0 mi South 15.0 mph 21.9 mph N/A   Clear
6:15 PM 68.0 °F 60.8 °F 78% 29.64 in 10.0 mi South 15.0 mph 23.0 mph N/A   Clear
6:35 PM 69.8 °F 60.8 °F 73% 29.63 in 10.0 mi SSW 11.5 mph - N/A   Scattered Clouds
6:55 PM 68.0 °F 60.8 °F 78% 29.63 in 10.0 mi South 15.0 mph - N/A   Overcast
7:15 PM 68.0 °F 60.8 °F 78% 29.64 in 10.0 mi South 13.8 mph - N/A   Overcast
7:35 PM 66.2 °F 60.8 °F 83% 29.64 in 10.0 mi South 11.5 mph - N/A   Mostly Cloudy
7:55 PM 66.2 °F 60.8 °F 83% 29.64 in 10.0 mi South 11.5 mph - N/A   Mostly Cloudy
8:15 PM 66.2 °F 60.8 °F 83% 29.64 in 10.0 mi South 9.2 mph - N/A   Partly Cloudy
8:35 PM 64.4 °F 60.8 °F 88% 29.64 in 10.0 mi South 9.2 mph - N/A   Clear
8:55 PM 64.4 °F 60.8 °F 88% 29.66 in 10.0 mi South 9.2 mph - N/A   Clear
9:15 PM 64.4 °F 60.8 °F 88% 29.66 in 10.0 mi South 9.2 mph - N/A   Clear
9:35 PM 62.6 °F 60.8 °F 94% 29.67 in 10.0 mi South 8.1 mph - N/A   Clear
9:55 PM 64.4 °F 60.8 °F 88% 29.69 in 10.0 mi SSW 9.2 mph - N/A   Clear
10:15 PM 64.4 °F 60.8 °F 88% 29.69 in 10.0 mi South 8.1 mph - N/A   Clear
10:35 PM 62.6 °F 60.8 °F 94% 29.69 in 10.0 mi South 8.1 mph - N/A   Clear
10:55 PM 62.6 °F 60.8 °F 94% 29.70 in 10.0 mi South 6.9 mph - N/A   Clear
11:15 PM 62.6 °F 60.8 °F 94% 29.70 in 10.0 mi South 8.1 mph - N/A   Clear
11:35 PM 62.6 °F 60.8 °F 94% 29.71 in 10.0 mi South 6.9 mph - N/A   Partly Cloudy
11:55 PM 62.6 °F 60.8 °F 94% 29.70 in 10.0 mi SSE 6.9 mph - N/A   Mostly Cloudy